This is the latest recevied weather packets stored in our database for station/object KE4LOJ. If no packets are shown the sender has not sent any weather packets the latest 10 day(s).
| Time | Temp. | Humidity | Pressure | Rain* | Wind** | Luminosity | Snow |
|---|---|---|---|---|---|---|---|
| 1777639120 | 23.89° C | 89% | 1013 hPa | 0 mm | - | 122 W/m² | - |
| 1777638817 | 23.89° C | 90% | 1012.7 hPa | 0 mm | - | 118 W/m² | - |
| 1777638517 | 23.89° C | 90% | 1012.8 hPa | 0 mm | - | 110 W/m² | - |
| 1777638215 | 23.89° C | 91% | 1012.6 hPa | 0 mm | - | 100 W/m² | - |
| 1777637911 | 23.89° C | 91% | 1012.8 hPa | 0 mm | - | 89 W/m² | - |
| 1777637607 | 23.33° C | 91% | 1012.8 hPa | 0 mm | - | 77 W/m² | - |
| 1777637305 | 23.33° C | 91% | 1012.5 hPa | 0 mm | - | 71 W/m² | - |
| 1777637001 | 23.33° C | 92% | 1012.6 hPa | 0 mm | - | 64 W/m² | - |
| 1777636696 | 23.33° C | 92% | 1012.5 hPa | 0 mm | - | 59 W/m² | - |
| 1777636393 | 23.33° C | 92% | 1012.6 hPa | 0 mm | - | 53 W/m² | - |
| 1777636089 | 22.78° C | 93% | 1012.5 hPa | 0 mm | - | 58 W/m² | - |
| 1777635784 | 22.78° C | 93% | 1012.4 hPa | 0 mm | - | 46 W/m² | - |
| 1777635481 | 22.78° C | 93% | 1012.4 hPa | 0 mm | - | 39 W/m² | - |
| 1777635178 | 22.78° C | 93% | 1012.4 hPa | 0 mm | - | 32 W/m² | - |
| 1777634874 | 22.78° C | 93% | 1012.2 hPa | 0 mm | - | 25 W/m² | - |
| 1777634571 | 22.78° C | 93% | 1012.2 hPa | 0 mm | - | 17 W/m² | - |
| 1777634268 | 22.78° C | 93% | 1012.2 hPa | 0 mm | - | 12 W/m² | - |
| 1777633965 | 22.78° C | 93% | 1012.1 hPa | 0 mm | - | 8 W/m² | - |
| 1777633662 | 22.78° C | 93% | 1011.8 hPa | 0 mm | - | 7 W/m² | - |
| 1777633360 | 22.78° C | 93% | 1012 hPa | 0 mm | - | 6 W/m² | - |
| 1777633057 | 22.78° C | 93% | 1011.8 hPa | 0 mm | - | 5 W/m² | - |
| 1777632753 | 22.78° C | 93% | 1011.8 hPa | 0 mm | - | 4 W/m² | - |
| 1777632449 | 22.78° C | 93% | 1011.7 hPa | 0 mm | - | 2 W/m² | - |
| 1777632147 | 22.78° C | 93% | 1011.9 hPa | 0 mm | - | 1 W/m² | - |
| 1777631844 | 22.78° C | 93% | 1011.9 hPa | 0 mm | - | 0 W/m² | - |
* Rain latest hour (hover to see other rain measurements)
** Current wind speed in m/s (hover to see current wind gust speed)